Location: Aragnouet
(42.7874°N, 0.2165°E)
Time: 16:01:09
(UTC+00:00)

CZ-2C R/B - Pass Details

Date: 09 April 2020
Orbit: 785 x 870 km, 98.3° (Epoch: 28 May)

Event Time Altitude Azimuth Distance (km) Brightness Sun altitude
Rises 19:18:30 0° 26° (NNE) 3,285 5.7 -8.5°
Reaches altitude 10° 19:21:15 10° 40° (NE) 2,355 4.8 -9.0°
Maximum altitude 19:25:26 24° 94° (E) 1,585 3.6 -9.7°
Drops below altitude 10° 19:29:36 10° 147° (SSE) 2,363 4.6 -10.4°
Enters shadow 19:32:00 - 160° (SSE) 3,170 5.3 -10.8°
